30.06.2024;16:00;90
30.06.2024;15:00;91
30.06.2024;14:00;91
30.06.2024;13:00;93
30.06.2024;12:00;93
30.06.2024;11:00;84
30.06.2024;10:00;78
30.06.2024;09:00;80
30.06.2024;08:00;79
30.06.2024;07:00;84
30.06.2024;06:00;92
30.06.2024;05:00;93
30.06.2024;04:00;71
30.06.2024;03:00;48
30.06.2024;02:00;62
30.06.2024;01:00;70
30.06.2024;00:00;82
29.06.2024;23:00;77
29.06.2024;22:00;81
29.06.2024;21:00;75
29.06.2024;20:00;81
29.06.2024;19:00;89
29.06.2024;18:00;96
29.06.2024;17:00;96
29.06.2024;16:00;103
29.06.2024;15:00;96
29.06.2024;14:00;92
29.06.2024;13:00;84
29.06.2024;12:00;80
29.06.2024;11:00;75
29.06.2024;10:00;64
29.06.2024;09:00;60
29.06.2024;08:00;26
29.06.2024;07:00;18
29.06.2024;06:00;13
29.06.2024;05:00;17
29.06.2024;04:00;19
29.06.2024;03:00;31
29.06.2024;02:00;31
29.06.2024;01:00;38
29.06.2024;00:00;39
28.06.2024;23:00;45
28.06.2024;22:00;49
28.06.2024;21:00;78
28.06.2024;20:00;105
28.06.2024;19:00;103
28.06.2024;18:00;108
28.06.2024;17:00;107
